Weather History for KHSV - October, 2012

Change the Weather History Date:

Sunday, October 14, 2012

  Actual Average Record
Temperature  
Mean Temperature 71 °F 63 °F  
Max Temperature 77 °F 75 °F 89 °F (1928)
Min Temperature 64 °F 52 °F 34 °F (1977)
Degree Days  
Heating Degree Days 0 4  
Month to date heating degree days 59 39  
Since 1 July heating degree days 70 52  
Cooling Degree Days 6 2  
Month to date cooling degree days 29 46  
Year to date cooling degree days 2084 1916  
Growing Degree Days 20 (Base 50)    
Moisture  
Dew Point 62 °F    
Average Humidity 73    
Maximum Humidity 84    
Minimum Humidity 61    
Precipitation  
Precipitation 1.55 in 0.12 in 1.70 in (1909)
Month to date precipitation 3.44 1.56  
Year to date precipitation 42.99 41.60  
Snow  
Snow 0.00 in - - ()
Month to date snowfall 0.0  
Since 1 July snowfall 0.0  
Since 1 September snowfall 0.0  
Snow Depth 0.00 in    
Sea Level Pressure  
Sea Level Pressure 30.03 in    
Wind  
Wind Speed 10 mph (SSW)    
Max Wind Speed 25 mph    
Max Gust Speed 37 mph    
Visibility 8 miles    
Events Fog , Rain , Thunderstorm    
T = Trace of Precipitation, MM = Missing Value Source: NWS Daily Summary

Daily Weather History Graph

Daily Weather History Graph

Search for Another Location

Airport or City:

Trip Planner

Search our weather history database for the weather conditions in past years. The results will help you decide how hot, cold, wet, or windy it might be!

Date:

Astronomy

Oct. 14, 2012 Rise Set
Actual Time 6:52 AM CDT 6:13 PM CDT
Civil Twilight 6:26 AM CDT 6:38 PM CDT
Nautical Twilight 5:57 AM CDT 7:07 PM CDT
Astronomical Twilight 5:28 AM CDT 7:36 PM CDT
Moon 5:51 AM CDT (10/14) 5:33 PM CDT (10/14)
Length of Visible Light 12h 11m
Length of Day
11h 20m
Waning Crescent, 1% of the Moon is Illuminated
Oct 14
Waning Crescent
Oct 15
New
Oct 21
First Quarter
Oct 29
Full
Nov 6
Last Quarter

Hourly Weather History & Observations

Time (CDT) Temp. Dew Point Humidity Pressure Visibility Wind Dir Wind Speed Gust Speed Precip Events Conditions
12:53 AM 69.1 °F 55.9 °F 63% 30.12 in 10.0 mi SSE 12.7 mph 20.7 mph N/A   Mostly Cloudy
1:53 AM 66.9 °F 55.0 °F 66% 30.11 in 10.0 mi SSE 12.7 mph - N/A   Mostly Cloudy
2:53 AM 66.0 °F 55.0 °F 68% 30.10 in 10.0 mi SSE 11.5 mph - N/A   Mostly Cloudy
3:53 AM 64.9 °F 55.9 °F 73% 30.08 in 10.0 mi SSE 9.2 mph - N/A   Mostly Cloudy
4:53 AM 64.0 °F 57.0 °F 78% 30.09 in 10.0 mi SSE 10.4 mph - N/A   Mostly Cloudy
5:53 AM 64.9 °F 57.9 °F 78% 30.08 in 10.0 mi SSE 12.7 mph 19.6 mph N/A   Overcast
6:53 AM 64.0 °F 59.0 °F 84% 30.14 in 10.0 mi South 9.2 mph - N/A   Overcast
7:53 AM 66.0 °F 60.1 °F 81% 30.14 in 10.0 mi SSE 17.3 mph 23.0 mph N/A   Overcast
8:00 AM 66.2 °F 60.8 °F 83% 30.14 in 10.0 mi SSE 18.4 mph 24.2 mph N/A   Overcast
8:53 AM 66.9 °F 60.1 °F 79% 30.17 in 10.0 mi South 12.7 mph 17.3 mph N/A   Overcast
9:53 AM 72.0 °F 62.1 °F 71% 30.16 in 10.0 mi South 16.1 mph 19.6 mph N/A   Mostly Cloudy
10:00 AM 71.6 °F 60.8 °F 69% 30.17 in 10.0 mi South 13.8 mph 21.9 mph N/A   Mostly Cloudy
10:39 AM 71.6 °F 60.8 °F 69% 30.16 in 10.0 mi South 17.3 mph - N/A   Mostly Cloudy
10:53 AM 73.0 °F 61.0 °F 66% 30.14 in 10.0 mi South 16.1 mph 23.0 mph N/A   Mostly Cloudy
11:53 AM 75.9 °F 62.1 °F 62% 30.09 in 10.0 mi South 12.7 mph - N/A   Mostly Cloudy
12:53 PM 75.9 °F 62.1 °F 62% 30.06 in 10.0 mi SSW 16.1 mph 25.3 mph N/A   Overcast
1:53 PM 75.0 °F 62.1 °F 64% 30.00 in 10.0 mi South 12.7 mph 21.9 mph N/A   Overcast
2:53 PM 75.2 °F 64.4 °F 69% 30.01 in 10.0 mi SSW 8.1 mph - N/A   Overcast
3:53 PM 75.0 °F 66.0 °F 73% 29.97 in 10.0 mi South 8.1 mph - 0.01 in   Mostly Cloudy
4:53 PM 75.0 °F 64.0 °F 69% 29.96 in 10.0 mi SSW 8.1 mph - N/A   Mostly Cloudy
5:53 PM 73.9 °F 64.0 °F 71% 29.96 in 10.0 mi South 9.2 mph - N/A   Overcast
6:53 PM 72.0 °F 64.9 °F 78% 29.96 in 10.0 mi South 4.6 mph - N/A   Overcast
7:53 PM 72.0 °F 64.9 °F 78% 29.95 in 10.0 mi South 6.9 mph - 0.00 in Rain Light Rain
8:53 PM 71.1 °F 64.9 °F 81% 29.94 in 10.0 mi South 5.8 mph - 0.00 in   Overcast
9:07 PM 71.6 °F 64.4 °F 78% 29.96 in 10.0 mi South 6.9 mph - N/A Thunderstorm Thunderstorm
9:33 PM 71.6 °F 66.2 °F 83% 29.96 in 9.0 mi South 5.8 mph - 0.04 in Rain Light Rain
9:53 PM 70.0 °F 66.0 °F 87% 29.93 in 8.0 mi South 5.8 mph - 0.07 in Rain Light Rain
10:11 PM 69.8 °F 66.2 °F 88% 29.96 in 9.0 mi SW 9.2 mph - 0.06 in Rain , Thunderstorm Heavy Thunderstorms and Rain
10:14 PM 69.8 °F 66.2 °F 88% 29.96 in 1.8 mi West 10.4 mph - 0.09 in Rain , Thunderstorm Heavy Thunderstorms and Rain
10:24 PM 69.8 °F 66.2 °F 88% 29.96 in 0.5 mi Variable 6.9 mph 36.8 mph 0.60 in Fog , Rain , Thunderstorm Heavy Thunderstorms and Rain
10:35 PM 69.8 °F 66.2 °F 88% 29.97 in 1.2 mi WSW 20.7 mph 28.8 mph 0.79 in Rain , Thunderstorm Heavy Thunderstorms and Rain
10:43 PM 69.8 °F 66.2 °F 88% 29.95 in 5.0 mi SW 18.4 mph 28.8 mph 0.97 in Rain , Thunderstorm Light Thunderstorms and Rain
10:53 PM 70.0 °F 66.9 °F 90% 29.94 in 5.0 mi WSW 13.8 mph - 0.97 in Rain , Thunderstorm Light Thunderstorms and Rain
10:58 PM 69.8 °F 66.2 °F 88% 29.97 in 1.8 mi West 19.6 mph 31.1 mph 0.00 in Rain , Thunderstorm Heavy Thunderstorms and Rain
11:10 PM 68.0 °F 64.4 °F 88% 29.96 in 1.2 mi SW 13.8 mph 27.6 mph 0.38 in Rain , Thunderstorm Thunderstorms and Rain
11:22 PM 68.0 °F 64.4 °F 88% 29.96 in 2.0 mi SW 13.8 mph 25.3 mph 0.48 in Rain , Thunderstorm Heavy Thunderstorms and Rain
11:31 PM 66.2 °F 62.6 °F 88% 29.96 in 8.0 mi SW 10.4 mph - 0.50 in Rain , Thunderstorm Light Thunderstorms and Rain
11:53 PM 66.9 °F 64.0 °F 90% 29.94 in 10.0 mi West 4.6 mph - 0.50 in   Overcast